Content
SEND FEEDBACK

Daily
Averages
Monthly
Summary
Italy

TURIN, ITALY


Home > Europe > Italy
Elevation: 941 feet     Latitude: 45 13N     Longitude: 007 39E

WEATHER
 
SELECT A DAY
Number of Records: 311,390;   Date Range: 7/1/96 - 11/25/14
 
SHARE

PRINT THIS DATA

[ ← Previous Day ]
WEATHER ALMANAC - APRIL 24, 2013
[ Next Day → ]
[ °C ]   °F
Weather ElementAverageHighLow
Temperature60.6 °F68 °F (2:50 pm)53.6 °F (4:50 am)
Dewpoint47.4 °F53.6 °F (8:20 am)41 °F (4:50 pm)
Humidity64.9 %94 % (5:50 am)37 % (4:50 pm)
Barometer30.37 in30.45 in (11:50 am)30.30 in (12:50 am)
Wind Speed3.7 mph9.2 mph (1:50 am)
Weather ElementAverage
Visibility5.1 mi
Wind DirectionESE (112.1 °)

Weather ElementTotal
Precipitation---
Heating Degree Days4.2 (Base 65)
Growing Degree Days10.8 (Base 50)
Averaged from 47 records on April 24, 2013
WEATHER CONDITIONS BREAKOUT
WIND DIRECTION BREAKOUT
WEATHER BY HOUR - APRIL 24, 2013
[ °C ]   °F
Local TimeTemperatureDewpointHumidityBarometerVisibilityWind DirectionWind SpeedGust SpeedPrecipitationEventsConditions
12:50 AM55.4 °F50.0 °F82 %30.30 in6.2 miNNE (30°)8.1 mphMostly Cloudy
1:20 AM55.4 °F50.0 °F82 %30.33 in6.2 miNorth (360°)8.1 mphMostly Cloudy
1:50 AM57.2 °F50.0 °F77 %30.33 in6.2 miNNE (30°)9.2 mphMostly Cloudy
2:20 AM57.2 °F50.0 °F77 %30.33 in6.2 miNorth (360°)5.8 mphMostly Cloudy
2:50 AM57.2 °F51.8 °F82 %30.33 in6.2 miNorth (10°)5.8 mphMostly Cloudy
3:20 AM55.4 °F51.8 °F88 %30.33 in6.2 miNorth (10°)4.6 mphMostly Cloudy
3:50 AM55.4 °F51.8 °F88 %30.33 in6.2 miNorth (350°)5.8 mphMostly Cloudy
4:20 AM55.4 °F50.0 °F82 %30.36 in6.2 miEast (80°)6.9 mphMostly Cloudy
4:50 AM53.6 °F50.0 °F88 %30.33 in3.1 miVariable2.3 mphRainRain
5:20 AM53.6 °F50.0 °F88 %30.36 in2.5 miCalmRainRain
5:50 AM53.6 °F51.8 °F94 %30.36 in2.5 miVariable2.3 mphRainLight Rain
6:20 AM53.6 °F51.8 °F94 %30.36 in2.5 miCalmRainLight Rain
6:50 AM53.6 °F51.8 °F94 %30.36 in2.2 miCalmMostly Cloudy
7:20 AM53.6 °F51.8 °F94 %30.39 in2.2 miWest (280°)3.5 mphMostly Cloudy
7:50 AM53.6 °F51.8 °F94 %30.39 in2.2 miWest (280°)3.5 mphMostly Cloudy
8:20 AM55.4 °F53.6 °F94 %30.39 in3.1 miWest (280°)3.5 mphMostly Cloudy
8:50 AM55.4 °F53.6 °F94 %30.39 in3.1 miWest (280°)4.6 mphMostly Cloudy
9:20 AM59.0 °F51.8 °F77 %30.39 in3.1 miWNW (290°)3.5 mphMostly Cloudy
9:50 AM59.0 °F48.2 °F67 %30.42 in3.1 miCalmPartly Cloudy
10:20 AM59.0 °F48.2 °F67 %30.42 in5.0 miCalmPartly Cloudy
10:50 AM60.8 °F50.0 °F68 %30.42 in5.0 miCalmScattered Clouds
11:20 AM62.6 °F50.0 °F63 %30.42 in6.2 miSE (130°)3.5 mphScattered Clouds
11:50 AM62.6 °F50.0 °F63 %30.45 in6.2 miCalmScattered Clouds
12:20 PM62.6 °F46.4 °F55 %30.45 in6.2 miESE (110°)5.8 mphPartly Cloudy
12:50 PM64.4 °F46.4 °F52 %30.45 in6.2 miSE (130°)5.8 mphPartly Cloudy
1:20 PM64.4 °F44.6 °F49 %30.42 in6.2 miEast (100°)5.8 mphPartly Cloudy
1:50 PM64.4 °F44.6 °F49 %30.42 in6.2 miEast (100°)3.5 mphPartly Cloudy
2:20 PM66.2 °F46.4 °F49 %30.42 in6.2 miESE (120°)5.8 mphPartly Cloudy
2:50 PM68.0 °F46.4 °F46 %30.42 in6.2 miESE (120°)5.8 mphPartly Cloudy
3:20 PM68.0 °F46.4 °F46 %30.39 in6.2 miCalmPartly Cloudy
3:50 PM68.0 °F44.6 °F43 %30.36 in6.2 miCalmPartly Cloudy
4:20 PM68.0 °F42.8 °F40 %30.36 in6.2 miSE (140°)5.8 mphPartly Cloudy
4:50 PM68.0 °F41.0 °F37 %30.36 in6.2 miESE (120°)4.6 mphPartly Cloudy
5:20 PM68.0 °F41.0 °F37 %30.36 in6.2 miVariable3.5 mphPartly Cloudy
5:50 PM68.0 °F42.8 °F40 %30.36 in6.2 miEast (80°)5.8 mphPartly Cloudy
6:20 PM68.0 °F42.8 °F40 %30.36 in6.2 miVariable3.5 mphPartly Cloudy
6:50 PM68.0 °F42.8 °F40 %30.36 in6.2 miEast (90°)3.5 mphPartly Cloudy
7:20 PM66.2 °F46.4 °F49 %30.33 in6.2 miENE (70°)5.8 mphPartly Cloudy
7:50 PM64.4 °F42.8 °F45 %30.33 inVariable3.5 mphClear
8:20 PM64.4 °F41.0 °F42 %30.36 inCalmClear
8:50 PM64.4 °F41.0 °F42 %30.36 inCalmClear
9:20 PM64.4 °F42.8 °F45 %30.36 inCalmClear
9:50 PM62.6 °F46.4 °F55 %30.36 inCalmClear
10:20 PM59.0 °F44.6 °F59 %30.36 inNNW (340°)3.5 mphClear
10:50 PM59.0 °F44.6 °F59 %30.36 inNW (320°)6.9 mphClear
11:20 PM55.4 °F44.6 °F67 %30.36 inNNW (330°)6.9 mphClear
11:50 PM55.4 °F44.6 °F67 %30.36 inNNW (330°)6.9 mphClear
Hourly data recorded from LIMF, located miles away from Turin, Italy







STORIES FROM OUR PARTNERS